Location: Gorze? G�rny
(49.8500°N, 19.5000°E)
Time: 05:29:43
(UTC+00:00)

Iridium 4 Rocket - Pass Details

Date: 13 May 2021
Orbit: 583 x 906 km, 86.9° (Epoch: 20 June)

Event Time Altitude Azimuth Distance (km) Brightness Sun altitude
Exits shadow 20:03:49 12° 179° (S) 2,417 5.6 -13.5°
Maximum altitude 20:09:19 85° 91° (E) 914 3.8 -14.0°
Drops below altitude 10° 20:15:17 10° 4° (N) 2,596 7.0 -14.6°
Sets 20:17:44 0° 4° (N) 3,527 7.8 -14.8°
